Weather Roundup
Issued by NWS Chicago, IL

Home | Current Version | Previous Version | Graphics & Text | Print | Product List | Glossary On
Versions: 1 2 3 4 5 6 7 8 9 10 11 12 13 14 15 16 17 18 19 20 21 22 23 24 25 26 27 28 29 30 31 32 33 34 35 36 37 38 39 40 41 42 43 44 45 46 47 48 49 50
000
NZUS59 KLOT 290108
HRRLOT

CHICAGO AREA WEATHER ROUNDUP
NATIONAL WEATHER SERVICE CHICAGO/ROMEOVILLE IL
800 PM CDT TUE MAR 28 2017

NOTE: "FAIR" INDICATES FEW OR NO CLOUDS BELOW 12,000 FEET WITH NO
SIGNIFICANT WEATHER AND/OR OBSTRUCTIONS TO VISIBILITY.

* THESE STATIONS ARE NOT UNDER NWS QUALITY CONTROL. THEY ALSO MAY NOT
  REPORT WEATHER SUCH AS PRECIPITATION OR FOG.

ILZ005-006-012>014-019>023-290200-
NORTHEAST ILLINOIS

CITY           SKY/WX    TMP DP  RH WIND       PRES   REMARKS
OHARE          CLOUDY    42  36  79 NE5       30.18R
MIDWAY         MOCLDY    43  37  79 NE7       30.18R
AURORA         CLEAR     44  35  70 NE9       30.17R
LANSING*       CLOUDY    40  38  96 NE7       30.19S
JOLIET*        CLEAR     44  39  82 E7        30.18R
WAUKEGAN       FOG       35  35 100 NE6       30.19R VSB 1/4 WCI  30
DUPAGE AIRPORT CLEAR     41  37  86 E7        30.17R
WHEELING       CLOUDY    37  37 100 NE5       30.20S
KANKAKEE*      CLOUDY    42  37  82 NE8       30.19R
MORRIS*        CLEAR     44  38  79 CALM      30.17R
LEWIS AIRPORT* CLOUDY    43  39  88 E10       30.17R
NORTHERLY ISL    N/A     38  36  92 MISG        N/A
$$

WIZ051-052-058>065-066-070>072-290200-
SOUTHEAST WISCONSIN

CITY           SKY/WX    TMP DP  RH WIND       PRES   REMARKS
MILWAUKEE      FOG       36  34  92 NE9       30.21R VSB 1/8
KENOSHA*       FOG       35  33  92 NE6       30.20R VSB 1   WCI  30
RACINE*        FOG       35  33  92 N7        30.22R VSB 1/4 WCI  29
WAUKESHA       MOCLDY    34  32  93 NE7       30.20R WCI  28
WEST BEND      PTCLDY    36  36 100 E5        30.20S FOG
$$

INZ001>003-010>013-019-020-290200-
NORTHWEST INDIANA

CITY           SKY/WX    TMP DP  RH WIND       PRES   REMARKS
GARY*          CLOUDY    41  37  87 N10       30.20R
MICHIGAN CITY* NOT AVBL
RENSSELAER*    NOT AVBL
VALPARAISO     CLOUDY    42  39  89 N7        30.18R
$$

LMZ740>746-290200-
SOUTHERN LAKE MICHIGAN

STATION/POSITION TIME  SKY/WX   TEMP WIND        PRES    VSBY
                                AIR  DIR/SP/G
                 (UTC)          (F)  (DEG/KT/KT) (MB)    (MI)
HARRISON CRIB    0040            37  340/  9/  9   N/A
BURNHAM HARBOR   0100            38  360/  6/ 10   N/A
CALUMET HARBOR   0030            38  340/  9/ 11 1021.5R
BURNS HARBOR     0040            39   40/  6/  8 1022.7R
MICHIGAN CITY    0040            38   20/  7/  8   N/A
$$

ABBREVIATIONS USED IN REMARKS
   TC - TEMPERATURE IN CELSIUS
  WCI - WIND CHILL INDEX
   HX - HEAT INDEX
  VSB - VISIBILITY
$$



USA.gov is the U.S. government's official web portal to all federal, state and local government web resources and services.